Lid_Strength_Index
2 2 2 2 2 2 3 3 3 3 3 4 4 4 4 4 4 4 4 4 4 3 3 3 2 2 2 3 3 -0 -3 -2 1 0 3 4 5 4 5 4 4 5 4 4 3 4 4
3 2 2 2 2 2 3 3 3 3 4 4 4 4 4 4 4 4 4 4 4 3 3 3 2 2 2 4 -0 -1 1 2 2 1 3 4 4 2 4 4 4 4 4 4 4 4 3
3 3 3 3 3 3 3 3 3 4 4 4 4 4 4 4 4 4 4 4 4 2 3 2 2 1 2 3 -0 0 1 2 2 2 3 3 1 3 3 4 3 4 5 4 4 4 4
3 3 3 3 2 2 3 3 3 4 4 4 4 4 4 4 4 4 5 5 4 2 2 2 2 1 3 0 -1 2 2 2 1 1 2 1 1 2 3 3 4 5 5 7 5 4 4
4 3 3 3 3 3 3 3 3 3 3 4 4 4 4 4 5 5 5 5 3 1 1 1 1 2 4 -0 1 1 1 3 2 2 1 1 1 3 3 5 6 5 8 7 6 4 4
4 4 4 3 3 3 3 3 3 3 3 4 4 4 4 5 5 5 5 5 2 2 1 0 1 3 2 3 1 2 1 2 3 3 3 2 3 5 5 6 9 8 7 7 7 5 5
5 4 4 4 4 3 3 3 3 3 3 4 4 4 4 5 5 5 4 1 3 3 2 3 3 4 3 1 1 2 2 3 3 4 5 4 5 7 6 5 5 6 7 7 6 5 5
5 5 4 4 4 4 3 3 3 3 3 4 4 4 4 4 5 6 4 2 2 3 4 2 2 3 2 1 4 3 2 4 5 6 4 5 7 5 5 5 6 6 7 7 6 5 5
5 5 5 4 4 4 4 3 3 3 4 4 4 4 4 5 5 4 3 3 1 1 4 3 2 3 2 2 4 4 3 3 5 5 5 6 5 4 5 6 6 6 7 7 7 6 5
5 5 5 4 4 4 4 4 3 3 4 4 4 4 4 5 5 3 5 1 1 1 6 5 4 3 3 2 4 2 2 3 4 6 5 5 5 5 6 6 6 7 5 6 7 7 9
5 5 5 5 4 4 4 4 4 4 4 4 4 4 5 5 4 5 3 1 2 1 11 5 4 1 2 4 3 3 2 3 5 5 5 6 6 6 6 6 5 7 5 6 6 7 7
5 5 5 5 5 5 4 4 4 4 4 4 4 5 5 3 2 3 2 2 2 8 11 6 4 5 5 4 4 3 3 2 3 5 5 5 4 5 5 5 5 5 6 6 6 7 10
5 5 5 5 5 5 5 4 4 4 4 4 5 5 5 4 4 2 2 3 8 10 5 7 6 5 5 6 5 5 5 5 6 8 7 6 6 5 4 6 5 5 7 10 11 10 11
5 5 5 5 5 5 5 5 4 5 5 4 5 6 4 3 2 2 3 5 11 7 7 5 5 5 6 5 5 5 6 7 5 6 7 8 9 6 5 5 6 6 7 10 13 12 10
5 5 5 5 5 5 5 5 5 5 5 5 6 3 3 3 2 2 5 8 9 7 5 6 6 7 7 6 6 6 6 6 5 5 7 8 8 5 5 4 5 7 8 6 8 8 10
4 4 5 5 5 6 5 5 5 4 5 6 5 4 4 2 1 4 7 9 6 5 5 5 7 6 8 7 7 6 7 5 6 5 4 6 8 6 5 4 5 5 5 8 8 11 12
4 4 4 5 5 5 5 5 5 5 5 6 5 6 3 1 1 6 9 8 6 4 4 6 6 7 6 7 6 7 7 5 5 5 4 5 6 7 5 6 7 7 7 7 7 8 11
4 4 4 5 5 5 5 5 5 5 6 5 6 8 2 1 7 7 8 7 6 5 4 5 5 5 6 6 7 7 7 6 4 4 6 5 6 8 7 5 5 5 6 7 9 9 8
3 3 4 4 5 5 5 5 5 5 5 6 7 7 3 2 8 8 6 7 5 5 5 5 5 5 5 6 7 6 6 4 4 5 5 5 7 9 8 7 5 6 6 6 6 7 9
2 2 2 3 4 4 4 4 4 5 5 6 6 7 6 4 5 6 6 7 7 5 5 4 5 4 5 6 5 6 6 5 4 4 4 4 6 8 10 8 6 8 7 6 7 9 8
1 1 1 2 2 3 3 3 3 4 4 5 5 6 4 6 7 6 5 5 7 6 5 4 5 5 6 7 6 7 5 5 5 6 4 5 7 7 7 6 6 7 7 7 7 7 8
1 0 0 1 1 1 1 2 2 2 4 5 6 6 4 6 5 6 7 6 6 6 5 6 6 5 5 6 6 7 6 5 6 5 5 5 7 6 7 6 7 7 7 7 7 7 7
-1 -1 -0 -0 0 1 1 2 2 2 4 4 4 4 6 7 7 7 6 6 6 5 4 4 5 5 5 5 4 4 4 4 4 5 6 6 6 8 9 7 7 9 7 7 6 6 6
-1 -1 -1 -1 -0 0 1 1 1 1 2 3 4 5 7 8 7 7 6 6 6 5 5 4 4 5 4 3 3 3 4 4 4 4 4 6 7 7 9 8 12 7 5 5 6 5 5
-2 -1 -1 -1 -1 -0 0 1 1 1 2 3 3 5 6 7 6 7 7 6 5 5 5 5 4 3 3 4 6 7 7 6 6 5 5 5 6 8 10 10 8 7 7 6 6 7 5
-1 -1 -1 -1 -1 -1 -1 -0 0 1 1 2 3 3 5 6 6 6 7 6 6 6 5 5 3 2 3 5 6 9 10 8 9 7 5 5 5 8 8 11 12 7 5 4 5 9 5
-0 -0 -1 -1 -1 -1 -1 -0 -0 -0 1 2 3 2 5 6 5 5 7 7 5 5 6 5 4 5 3 6 8 8 8 6 9 9 8 8 8 9 9 10 8 6 5 4 10 9 5
-0 -0 -0 -1 -1 -1 -1 -1 -0 -0 0 1 3 2 5 6 5 4 5 6 6 5 7 5 5 5 6 7 7 7 8 7 7 6 7 9 9 9 8 10 11 5 5 7 6 4 4
-0 0 -0 -1 -1 -1 -1 -1 -0 -0 0 1 4 3 3 6 5 3 4 4 5 5 6 5 5 5 5 6 6 6 7 6 7 9 6 9 7 8 8 8 5 4 5 4 4 4 4